Regional Weather Roundup
Issued by NWS Charleston, SC

Current Version | Previous Version | Text Only | Print | Product List | Glossary Off
Versions: 1 2 3 4 5 6 7 8 9 10 11 12 13 14 15 16 17 18 19 20 21 22 23 24 25 26 27 28 29 30 31 32 33 34 35 36 37 38 39 40 41 42 43 44 45 46 47 48 49 50

000
ASUS42 KCHS 011826
RWRCHS

REGIONAL WEATHER ROUNDUP
NATIONAL WEATHER SERVICE CHARLESTON SC
100 PM EST SUN FEB 01 2015

NOTE: "FAIR" INDICATES FEW OR NO CLOUDS BELOW 12,000 FEET WITH NO
SIGNIFICANT WEATHER AND/OR OBSTRUCTIONS TO VISIBILITY.

NOT ALL STATIONS ARE QUALITY CONTROLLED BY THE NATIONAL
WEATHER SERVICE. USE DATA WITH CAUTION...ESPECIALLY
DEWPOINT OBSERVATIONS.

SCZ027-030-031-034>040-042>050-011900-
...SOUTHEAST SOUTH CAROLINA...

CITY           SKY/WX    TMP DP  RH WIND       PRES   REMARKS
N CHARLESTON   MOSUNNY   66  44  45 S14G21    30.21F
6HR MIN TEMP:  37; 6HR MAX TEMP:  66;

WATERFRONT PRK   N/A     57 N/A N/A SE9         N/A
MOUNT PLEASANT FAIR      63  45  51 SE7       30.21F
PINOPOLIS        N/A     64  43  45 S7        30.12F
MONCKS CORNER  FAIR      66  43  42 S12G18    30.18F
SUMMERVILLE    FAIR      64  46  52 S10G20    30.18F
BEAUFORT MCAS  PTSUNNY   66  50  56 SE12G18   30.19F
6HR MIN TEMP:  38; 6HR MAX TEMP:  68;

BEAUFORT ARPT  FAIR      64  50  59 S7G17     30.19F
HILTON HEAD IS SUNNY     64  50  59 SE5       30.21F
WALTERBORO     MOCLDY    68  41  37 S15       30.17F
ALLENDALE      FAIR      68  45  42 S16       30.13F

...SOUTHERN MIDLANDS AND PEE DEE...

CITY           SKY/WX    TMP DP  RH WIND       PRES   REMARKS
GEORGETOWN     NOT AVBL
KINGSTREE      NOT AVBL
ORANGEBURG     SUNNY     65  42  43 S20       30.16F
6HR MIN TEMP:  35; 6HR MAX TEMP:  66;

BARNWELL       FAIR      68  43  40 S10G22    30.13F
AIKEN          FAIR      64  45  48 S16G23    30.15F
MANNING        FAIR      63  -4   7 S9        30.16F
COLUMBIA       PTSUNNY   65  43  44 S17G23    30.14F
6HR MIN TEMP:  38; 6HR MAX TEMP:  65;

SUMTER         MOSUNNY   64  40  41 S17G24    30.14F
6HR MIN TEMP:  36; 6HR MAX TEMP:  64;

FLORENCE       PTSUNNY   62  33  33 S13       30.18F
6HR MIN TEMP:  37; 6HR MAX TEMP:  62;

MYRTLE BEACH   SUNNY     57  37  47 S14       30.27F
N MYRTLE BEACH SUNNY     58  40  51 S13       30.23F
6HR MIN TEMP:  36; 6HR MAX TEMP:  58;


$$

GAZ063-065-086>088-099>101-113>116-118-119-134>141-150-011900-
...SOUTHEAST GEORGIA...

CITY           SKY/WX    TMP DP  RH WIND       PRES   REMARKS
SAVANNAH ARPT  PTSUNNY   68  46  45 S14G22    30.18F
6HR MIN TEMP:  36; 6HR MAX TEMP:  69;

HUNTER AAF     SUNNY     67  49  52 S12G18    30.16F
6HR MIN TEMP:  38; 6HR MAX TEMP:  68;

FORT STEWART   MOSUNNY   70  46  43 S12       30.15F
6HR MIN TEMP:  37; 6HR MAX TEMP:  71;

STATESBORO     MOSUNNY   70  49  47 S14       30.13F
SYLVANIA       MOCLDY    67  48  51 S10G18    30.14F
CLAXTON        FAIR      68  50  52 S10G17    30.13F

...CSRA...CENTRAL AND FAR SOUTHEAST GEORGIA...

CITY           SKY/WX    TMP DP  RH WIND       PRES   REMARKS
THOMSON        PTSUNNY   65  49  55 S8        30.16F
AUGUSTA-BUSH   PTSUNNY   65  44  46 S14       30.14F
6HR MIN TEMP:  34; 6HR MAX TEMP:  66;

AUGUSTA-DANIEL PTSUNNY   65  44  46 S14G23    30.13F
SWAINSBORO     MOCLDY    68  36  30 S15G21    30.13F
VIDALIA        PTSUNNY   70  50  49 S16G24    30.13F
EASTMAN        MOCLDY    70  49  48 SW10G20   30.13F
HAZLEHURST     FAIR      70  50  49 S9G18     30.11F
ALMA           MOSUNNY   68  48  48 S13G20    30.14F
6HR MIN TEMP:  41; 6HR MAX TEMP:  69;

WAYCROSS       MOSUNNY   73  51  46 S13G18    30.13F
JESUP          MOCLDY    73  50  43 S13G21    30.14F
BAXLEY         PTSUNNY   70  50  49 S14G20    30.12F
BRUNSWICK      SUNNY     70  46  43 SE16      30.17F
SAINT SIMONS   MOSUNNY   64  49  57 S10       30.19F
6HR MIN TEMP:  46; 6HR MAX TEMP:  66;


$$

SCZ027-028-034-036>038-045-046-048>050-GAZ119-141-011900-
...LAKE AND SUPPLEMENTAL COASTAL OBSERVATIONS...

STATION/POSITION TIME  TEMP    WIND        PRES    WAVE   SWELL
                       AIR SEA DIR/SP/G            HT/PER HT/PER/DIR
                 (UTC) (F)     (DEG/KT/KT) (MB)    (FT/S) (FT/S/D)
UPR LAKE MARION  NOT AVBL
WINYAH BAY       1700   54     140/  6     1024.0F
LAKE MURRAY      1800   57     190/ 10/ 12 1020.0F
ACE BASIN NERRS  1700   63     130/  5     1024.0
FORT PULASKI     1800   64 52  140/ 10/ 14 1022.6F
SAPELO ISLAND    1800   68     160/ 10     1022.0F

$$

ANZ835-935-AMZ111-154-330-350-352-354-370-450-454-472-011900-
...C-MAN AND BUOY OBSERVATIONS...

STATION/POSITION TIME  TEMP    WIND        PRES    WAVE   SWELL
                       AIR SEA DIR/SP/G            HT/PER HT/PER/DIR
                 (UTC) (F)     (DEG/KT/KT) (MB)    (FT/S) (FT/S/D)
BUOY 41004       1750   63 71  170/ 12/ 14 1023.7F   4/10   3/10
BUOY 41008       1750   58 55  120/  6/  6 1022.7F   2/11   2/ 70/11
FOLLY BEACH CMAN 1800   55     110/  5/  5 1023.6F
CAPERS NEARSHORE 1700   56     110/  6/  8   N/A
FRIPP NEARSHORE  1700   58     120/  6/  8 1023.2F


STATION/POSITION TIME  TEMP    WIND        PRES    WAVE   SWELL
                       AIR SEA DIR/SP/G            HT/PER HT/PER/DIR
                 (UTC) (F)     (DEG/KT/KT) (MB)    (FT/S) (FT/S/D)
5E ST. MARYS GA  1721      57                N/A     2/11   2/ 90/11
FRYING PAN BUOY  1750   59 63  210/ 10/ 12 1025.1F   2/11   2/ 30/11
BUOY 41025       1750   54 71  240/ 12/ 16 1024.3F   5/11   5/ 70/11
CAPE LOOKOUT NC  1800   51     260/  7/  9 1024.3F
BUOY 41002       1750   60 71  200/  2/  8 1026.7F   7/11   7/ 20/11
BUOY 41010       1720   67 74  120/ 12/ 17 1025.1F
ST AUGUSTINE FL  1800   61     110/  9/ 10 1022.5F


$$


USA.gov is the U.S. government's official web portal to all federal, state and local government web resources and services.